Current weather by "City, St" or "zip code"  
 

Current Conditions: Sierra Blanca Regional Airport, NM

Overcast


57.0 F

Last Updated on Sep 18 2020, 12:55 am MDT
Humidity: 48%
Wind Speed: N 0.0 mph
Barometer 30.43 in
Dewpoint: 37.4 F
Visibility: 10.00 mi
Precip: --
Heat Index: NA
Wind Chill: NA
Current conditions at:

Sierra Blanca Regional Airport, NM (KSRR)

Lat: 33.46677 Lon: 105.52778

Local Radar Image active severe weather and emergency alerts image image weather storm and storm spotter reports image weather observation monitoring service image
Local
Radar
Active
Alerts
Storm Reports Obs
Monitoring

Sign-up For Email & Text Message Weather Alert Notification Services



Advertise Here

Observation History for Sierra Blanca Regional Airport, NM


Time Wind
(mph)
Vis
(mi)
Weather Precip (in) Temperature (F) Relative
Humidity
Wind
Chill
(F)
Heat
Index
(F)
Pressure
Air Dwpt altimeter
(in)
sea level
(mb)
Rmks
12:55 am MDT N 0.0 10.00 Overcast -- 57.0 37.4 48% NA NA 30.43 M
11:55 pm MDT SW 4.6 10.00 Partly Cloudy -- 57.0 37.4 48% 57 NA 30.43 M
10:55 pm MDT SW 4.6 10.00 Mostly Cloudy -- 57.0 37.4 48% 57 NA 30.42 M
9:55 pm MDT S 4.6 10.00 Mostly Cloudy -- 59.0 39.2 48% 59 NA 30.42 M
8:55 pm MDT SE 4.6 10.00 Fair -- 59.0 39.2 48% 59 NA 30.42 M
7:55 pm MDT SE 8.1 10.00 Fair -- 59.0 39.2 48% 58 NA 30.39 M
6:55 pm MDT SE 8.1 10.00 Fair -- 64.0 39.2 40% NA NA 30.38 M
5:55 pm MDT E 11.5 10.00 Fair -- 68.0 39.2 35% NA NA 30.36 M
4:55 pm MDT E 11.5 10.00 Fair -- 70.0 41.0 35% NA NA 30.36 M
4:35 pm MDT SE 9.2 10.00 Fair -- 70.0 41.0 35% NA NA 30.36 M
3:55 pm MDT SE 8.1 10.00 Fair -- 72.0 41.0 33% NA NA 30.37 M
2:55 pm MDT S 5.8 10.00 Mostly Cloudy -- 70.0 41.0 35% NA NA 30.39 M
2:35 pm MDT SE 5.8 10.00 A Few Clouds -- 70.0 42.8 38% NA NA 30.39 M
1:55 pm MDT NE 3.5 10.00 Fair -- 70.0 41.0 35% NA NA 30.41 M
12:55 pm MDT S 4.6 10.00 Mostly Cloudy -- 66.0 41.0 40% NA NA 30.43 M
11:55 am MDT E 4.6 10.00 A Few Clouds -- 66.0 44.6 46% NA NA 30.45 M
10:55 am MDT SE 5.8 10.00 Overcast -- 66.0 41.0 40% NA NA 30.46 M
9:55 am MDT E 5.8 10.00 Fair -- 63.0 44.6 52% 63 NA 30.46 M
8:55 am MDT W 3.5 10.00 Fair -- 59.0 42.8 55% NA NA 30.45 M
7:35 am MDT W 5.8 10.00 Fair -- 54.0 42.8 67% 53 NA 30.44 M
6:55 am MDT W 6.9 10.00 Fair -- 52.0 41.0 67% 50 NA 30.42 M
5:55 am MDT W 5.8 10.00 Partly Cloudy -- 54.0 41.0 63% 53 NA 30.41 M
4:55 am MDT NW 6.9 10.00 Mostly Cloudy -- 54.0 41.0 63% 52 NA 30.40 M
3:55 am MDT SW 6.9 10.00 Partly Cloudy -- 52.0 41.0 67% 50 NA 30.40 M

Regional Weather Observation


Corona/Lincoln, NM (K4CR)

Clear
52.0 F

Alamogordo-White, NM (KALM)

Fair
68.0 F

Socorro Municipal Airport, NM (KONM)

Fair
62.0 F

Holloman Air Force Base, NM (KHMN)

Fair
63.0 F

Roswell International Air Center Airport, NM (KROW)

Fair
67.0 F

Moriarty Municipal Airport, NM (K0E0)

Fair
46.0 F